Crystal River Weather Center

Moon Phase Calendar



Online Cameras

 


      

Current Conditions in Crystal River
7/26/2021 7:12:49 PM

89°F
Feels Like 101
Clear
Humidity
67%
Pressure
29.88"
Wind
1 mph (NNW)
Dew Point
76°F
UV Index
1/10 (Low)
Visibility
6 mi

Hourly Forecast

Date & Time Mon, Jul 26
7:00 PM
Mon, Jul 26
8:00 PM
Mon, Jul 26
9:00 PM
Mon, Jul 26
10:00 PM
Mon, Jul 26
11:00 PM
Tue, Jul 27
12:00 AM
Tue, Jul 27
1:00 AM
Tue, Jul 27
2:00 AM
Tue, Jul 27
3:00 AM
Tue, Jul 27
4:00 AM
Tue, Jul 27
5:00 AM
Tue, Jul 27
6:00 AM
Tue, Jul 27
7:00 AM
Tue, Jul 27
8:00 AM
Tue, Jul 27
9:00 AM
Tue, Jul 27
10:00 AM
Tue, Jul 27
11:00 AM
Tue, Jul 27
12:00 PM
Tue, Jul 27
1:00 PM
Tue, Jul 27
2:00 PM
Tue, Jul 27
3:00 PM
Tue, Jul 27
4:00 PM
Tue, Jul 27
5:00 PM
Tue, Jul 27
6:00 PM
Tue, Jul 27
7:00 PM
Tue, Jul 27
8:00 PM
Tue, Jul 27
9:00 PM
Tue, Jul 27
10:00 PM
Tue, Jul 27
11:00 PM
Wed, Jul 28
12:00 AM
Wed, Jul 28
1:00 AM
Wed, Jul 28
2:00 AM
Wed, Jul 28
3:00 AM
Wed, Jul 28
4:00 AM
Wed, Jul 28
5:00 AM
Wed, Jul 28
6:00 AM
Wed, Jul 28
7:00 AM
Wed, Jul 28
8:00 AM
Wed, Jul 28
9:00 AM
Wed, Jul 28
10:00 AM
Wed, Jul 28
11:00 AM
Wed, Jul 28
12:00 PM
Wed, Jul 28
1:00 PM
Wed, Jul 28
2:00 PM
Wed, Jul 28
3:00 PM
Wed, Jul 28
4:00 PM
Wed, Jul 28
5:00 PM
Wed, Jul 28
6:00 PM
Condition
Clear

Clear

Clouds

Clouds

Clouds

Clouds

Clouds

Clouds

Clouds

Clouds

Clouds

Clouds

Clouds

Clouds

Clouds

Clouds

Clouds

Rain

Rain

Clouds

Clouds

Clouds

Clouds

Clouds

Clouds

Clouds

Clouds

Clouds

Clouds

Clouds

Rain

Rain

Rain

Rain

Clouds

Rain

Rain

Clouds

Rain

Rain

Rain

Rain

Clouds

Clouds

Clouds

Clouds

Clouds

Clouds
Temperature 89°F88°F86°F86°F84°F83°F83°F83°F82°F82°F82°F82°F82°F83°F85°F86°F87°F87°F87°F88°F88°F87°F87°F86°F86°F85°F84°F84°F83°F83°F83°F82°F82°F82°F82°F81°F81°F82°F83°F84°F84°F85°F85°F86°F86°F86°F86°F85°F
Feels Like 101°F98°F96°F94°F91°F88°F88°F88°F88°F87°F87°F87°F87°F89°F91°F92°F93°F94°F94°F94°F95°F94°F94°F93°F92°F91°F90°F90°F90°F89°F89°F88°F88°F87°F87°F87°F86°F89°F90°F91°F92°F92°F92°F92°F93°F92°F92°F92°F
Cloudiness 1%10%31%51%72%92%93%90%95%94%96%97%97%97%100%100%100%100%90%88%80%89%92%85%82%85%66%79%86%83%74%78%100%100%100%100%100%100%100%100%100%100%100%100%100%100%100%100%
Visibility 6 mi6 mi6 mi6 mi6 mi6 mi6 mi6 mi6 mi6 mi6 mi6 mi6 mi6 mi6 mi6 mi6 mi6 mi6 mi6 mi6 mi6 mi6 mi6 mi6 mi6 mi6 mi6 mi6 mi6 mi6 mi6 mi6 mi6 mi6 mi6 mi6 mi6 mi6 mi6 mi6 mi6 mi6 mi6 mi6 mi6 mi6 mi6 mi
Precipitation 19%26%49%50%50%41%37%29%22%26%22%24%24%22%6%8%14%30%38%38%27%15%19%21%22%20%2%2%2%2%23%55%57%58%43%55%58%60%41%67%84%82%85%83%30%26%19%11%
Humidity 67%66%69%69%69%70%71%71%72%72%72%73%73%72%67%64%62%61%60%60%61%61%62%64%65%68%69%70%71%72%73%75%75%76%76%78%79%77%74%73%71%68%68%66%66%65%65%66%
Dew Point 76°F75°F75°F74°F73°F72°F72°F72°F72°F72°F72°F72°F72°F73°F72°F72°F72°F72°F72°F72°F72°F72°F72°F73°F73°F73°F73°F73°F73°F73°F73°F73°F73°F73°F73°F74°F74°F74°F74°F74°F74°F73°F73°F73°F73°F73°F73°F73°F
Pressure 29.88"29.88"29.88"29.91"29.94"29.94"29.94"29.94"29.94"29.91"29.91"29.94"29.94"29.97"29.97"30"30"30"30"30"29.97"29.97"29.97"29.97"29.97"29.97"29.97"29.97"30"30"30"30"29.97"29.97"29.97"29.97"30"30"30"30.03"30.03"30.03"30.03"30.03"30"30"29.97"29.97"
Wind Speed 8.4 mph7 mph4.8 mph4.5 mph3.1 mph5 mph5.3 mph5.7 mph6.4 mph6.8 mph7 mph7.6 mph7.8 mph7.3 mph7.5 mph7.6 mph8 mph8.2 mph8.8 mph9.7 mph10.2 mph10 mph10.2 mph11 mph11.1 mph9.8 mph9.9 mph9.8 mph9.6 mph10.1 mph10.2 mph9.8 mph7.9 mph6.6 mph6 mph5.7 mph5.4 mph4.7 mph5.3 mph6.3 mph6.6 mph7.8 mph9.3 mph10.6 mph10.8 mph10.4 mph10.4 mph10.2 mph
Wind
Direction
273°
W
266°
W
278°
W
295°
WNW
244°
WSW
260°
W
248°
WSW
241°
WSW
228°
SW
225°
SW
230°
SW
229°
SW
231°
SW
234°
SW
235°
SW
234°
SW
237°
WSW
236°
SW
234°
SW
234°
SW
232°
SW
229°
SW
229°
SW
225°
SW
222°
SW
229°
SW
227°
SW
229°
SW
229°
SW
236°
SW
245°
WSW
262°
W
251°
WSW
261°
W
255°
WSW
258°
WSW
248°
WSW
239°
WSW
240°
WSW
249°
WSW
255°
WSW
254°
WSW
257°
WSW
255°
WSW
255°
WSW
252°
WSW
251°
WSW
254°
WSW

Daily Forecast

Date High Low Precip. Humidity
Today
Jul 26

Rain
89 °F
77 °F
50%
58%
Tuesday
Jul 27

Rain
88 °F
82 °F
41%
60%
Wednesday
Jul 28

Rain
86 °F
81 °F
84%
66%
Thursday
Jul 29

Rain
85 °F
79 °F
87%
68%
Friday
Jul 30

Rain
87 °F
81 °F
75%
64%
Saturday
Jul 31

Clouds
87 °F
82 °F
1%
65%
Sunday
Aug 1

Clouds
87 °F
82 °F
5%
64%
Monday
Aug 2

Clouds
87 °F
82 °F
11%
63%
Tuesday
Aug 3

Clouds
87 °F
81 °F
3%
62%
Wednesday
Aug 4

Rain
87 °F
79 °F
66%
62%
Thursday
Aug 5

Rain
84 °F
74 °F
94%
68%
Friday
Aug 6

Rain
86 °F
74 °F
98%
59%
Saturday
Aug 7

Rain
83 °F
76 °F
99%
72%
Sunday
Aug 8

Rain
87 °F
75 °F
100%
62%
Monday
Aug 9

Rain
88 °F
79 °F
100%
68%
Tuesday
Aug 10

Rain
89 °F
79 °F
87%
61%

Temperature 8-14 Day Outlook



Precipitation 8-14 Day Outlook




Quick Links
Crystal River News
Crystal River Photos
Crystal River Videos




About Us
Contact Us
Site Map
Search Site
Advertise With Us
   
CrystalRiver.USGulf.info
THE CRYSTAL RIVER WEBSITE

Copyright 2021, Coastal Town
Privacy    |    Legal